ATLAS 5 CENTAUR DEB, 44039

Orbit data source: Space-Track

ATLAS 5 CENTAUR DEB, 44039 is space debris in HEO originally from a launch on Wed, 17 Sep 2014 UTC launched from the Air Force Eastern Test Range (AFETR). Debris objects in space refer to the collection of defunct objects orbiting the Earth. Examples of debris include non-operational satellites, rocket bodies, and fragments generated from explosions, collisions, or faulty payload assembly.

Loading next visibility...
Identifier
44039, 2014-055BZ
Orbit
HEO
Country
Flag of USUS
Related business
Flag of USUnited Launch Alliance/Lockheed Martin (US)
Manufacturer
Unknown
Mission
Spacecraft
Bus & Motor
Unknown
Mass
Unknown
Launch date (UTC)
2014-09-17 (11 years ago)
Launch vehicle
Unknown
Launch site
Air Force Eastern Test Range (AFETR)
Object type
Payload
Rocket body
Debris
Shape & HBR
Unknown shape, 1.1 m
Radar Cross Section
Small (<0.1 m²)

Expand to show TLE details & history
Last TLE update: 3 days ago

TLE from 3 days ago
0 ATLAS 5 CENTAUR DEB
1 44039U 14055BZ  25347.61776195 -.00000023  00000-0  00000-0 0  9994
2 44039  20.2885 145.2073 4860407 163.7645 220.1144  1.89437004 48967
Epoch: 2025-12-13T14:49Z
TLE epoch observation values (Epoch: 2025-12-13T14:49:34.632Z)
Latitude
-0.00002°
Longitude
-159.73426°
Altitude
33,111.27 km
Speed
2.396 km/s
True Right ascension
09h 40m 48s
True Declination
0° 00' 00"
Sunlit
Object was in daylight at epoch
Visualization orbit readout
Latitude
Unknown
Longitude
Unknown
Altitude
Unknown
Speed
Unknown
Apparent Right ascension
Unknown
Apparent Declination
Unknown
Sunlit
N/A
Visualization observer readout
Local Sidereal Time
20:19:31
Azimuth
Unknown
Elevation
Unknown
Doppler factor
Unknown
Orbital elements
Apogee altitude
34,625.318 km
Perigee altitude
7,803.243 km
Semi-major axis
27,592.417 km
Eccentricity
0.48604
Inclination
20.2885°
RAAN
145.2073°
Arg. of periapsis
163.7645°
True anomaly
196.27378°
Mean anomaly
220.1144°
Eccentric anomaly
207.32926°
Mean motion
0.47354 °/min
Orbital period
760.23 mins
BSTAR
0
Loading maneuver chart data...
Computing Atmospheric mass density...

Documentation

Showing up to 5 results
|